Change the Weather History Date:

Wednesday, April 17, 2013

  Actual Average Record
Temperature  
Mean Temperature 28 °F -  
Max Temperature 32 °F 42 °F 68 °F (1998)
Min Temperature 23 °F 21 °F 0 °F (2006)
Degree Days  
Heating Degree Days 38    
Moisture  
Dew Point 17 °F    
Average Humidity 61    
Maximum Humidity 80    
Minimum Humidity 32    
Precipitation  
Precipitation 0.02 in - - ()
Sea Level Pressure  
Sea Level Pressure 30.33 in    
Wind  
Wind Speed 5 mph ()    
Max Wind Speed 14 mph    
Max Gust Speed 17 mph    
Visibility 12.8 miles    
Events Snow    
Averages and records for this station are not official NWS values.
T = Trace of Precipitation, MM = Missing Value Source: Averaged Metar Reports

Daily Weather History Graph

Daily Weather History Graph

Search for Another Location

Airport or City:

Trip Planner

Search our weather history database for the weather conditions in past years. The results will help you decide how hot, cold, wet, or windy it might be!

Date:

Astronomy

Apr. 17, 2013 Rise Set
Actual Time 6:34 AM MDT 9:35 PM MDT
Civil Twilight 5:44 AM MDT 10:26 PM MDT
Nautical Twilight 4:33 AM MDT 11:39 PM MDT
Astronomical Twilight 2:36 AM MDT 1:31 AM MDT
Moon 11:17 AM MDT (4/17) 3:54 AM MDT (4/17)
Length of Visible Light 16h 42m
Length of Day
15h 00m
Waxing Crescent, 43% of the Moon is Illuminated
Apr 17
Waxing Crescent
Apr 18
First Quarter
Apr 25
Full
May 2
Last Quarter
May 9
New

Hourly Weather History & Observations

Time (MDT) Temp. Windchill Dew Point Humidity Pressure Visibility Wind Dir Wind Speed Gust Speed Precip Events Conditions
12:00 AM 30 °F - 23 °F 65% 30.40 in 15 mi Calm Calm - -  
12:00 AM 30.2 °F - 23.0 °F 75% 30.40 in 15.0 mi Calm Calm - N/A   Partly Cloudy
1:00 AM 28.4 °F 21.2 °F 15.8 °F 59% 30.40 in 15.0 mi ESE 6.9 mph - N/A   Partly Cloudy
2:00 AM 28.4 °F 23.3 °F 19.4 °F 69% 30.39 in 15.0 mi East 4.6 mph - N/A   Partly Cloudy
3:00 AM 24.8 °F 17.9 °F 17.6 °F 74% 30.38 in 15.0 mi SE 5.8 mph - N/A   Partly Cloudy
5:00 AM 24.8 °F - 19.4 °F 80% 30.36 in 15.0 mi SE 2.3 mph - N/A   Mostly Cloudy
6:00 AM 24 °F - 14 °F 55% 30.35 in 15 mi SSE 3.5 mph - -   Partly Cloudy
6:00 AM 24.8 °F 20.5 °F 14.0 °F 64% 30.35 in 15.0 mi SSE 3.5 mph - N/A   Scattered Clouds
7:00 AM 23.0 °F 18.4 °F 15.8 °F 74% 30.34 in 15.0 mi SE 3.5 mph - N/A   Scattered Clouds
8:00 AM 23.0 °F 17.0 °F 15.8 °F 74% 30.33 in 15.0 mi ESE 4.6 mph - N/A   Mostly Cloudy
9:00 AM 24.8 °F 14.0 °F 17.6 °F 74% 30.32 in 15.0 mi SE 11.5 mph - N/A   Overcast
10:00 AM 28.4 °F 18.5 °F 21.2 °F 74% 30.31 in 15.0 mi SE 11.5 mph - N/A   Overcast
11:00 AM 28.4 °F 19.7 °F 21.2 °F 74% 30.30 in 15.0 mi East 9.2 mph - N/A   Overcast
12:00 PM 30 °F - 12 °F 33% 30.29 in 15 mi East 5.8 mph - -   Overcast
12:00 PM 30.2 °F 24.3 °F 12.2 °F 47% 30.29 in 15.0 mi East 5.8 mph - N/A   Overcast
1:00 PM 32.0 °F 22.1 °F 5.0 °F 32% 30.28 in 15.0 mi East 13.8 mph - N/A   Overcast
2:00 PM 32.0 °F 23.0 °F 8.6 °F 38% 30.28 in 15.0 mi East 11.5 mph 17.3 mph N/A   Overcast
3:00 PM 32.0 °F 25.6 °F 10.4 °F 41% 30.28 in 15.0 mi East 6.9 mph - N/A   Overcast
3:48 PM - - - N/A% - 15.0 mi East 6.9 mph - N/A   Unknown
4:00 PM 32.0 °F 26.4 °F 10.4 °F 41% 30.28 in 15.0 mi East 5.8 mph - N/A Snow Light Snow
5:00 PM 32.0 °F 26.4 °F 15.8 °F 51% 30.28 in 15.0 mi East 5.8 mph - N/A Snow Light Snow
6:00 PM 32 °F - 18 °F 42% 30.29 in 15 mi SSE 5.8 mph - - Snow Light Snow
6:00 PM 32.0 °F 26.4 °F 17.6 °F 55% 30.29 in 15.0 mi SSE 5.8 mph - N/A Snow Light Snow
7:00 PM 30.2 °F 24.3 °F 21.2 °F 69% 30.31 in 8.0 mi East 5.8 mph - N/A Snow Light Snow
7:31 PM - - - N/A% - 4.0 mi East 8.1 mph - N/A   Unknown
8:00 PM 28.4 °F 18.5 °F 21.2 °F 74% 30.32 in 3.0 mi East 11.5 mph - N/A Snow Light Snow
8:34 PM - - - N/A% - 6.0 mi East 9.2 mph - N/A   Unknown
9:00 PM 28.4 °F 18.5 °F 19.4 °F 69% 30.33 in 6.0 mi East 11.5 mph - N/A Snow Light Snow
10:00 PM 26.6 °F 20.0 °F 19.4 °F 74% 30.35 in 4.0 mi ENE 5.8 mph - N/A Snow Light Snow
11:00 PM 26.6 °F 18.2 °F 21.2 °F 80% 30.37 in 8.0 mi East 8.1 mph - N/A Snow Light Snow